Flag for United Kingdom Weather past 2 weeks in Rotherham, England, United Kingdom

Now
52 °F

Cool.


Feels Like: 48 °F
Forecast: 49 / 56 °F
Wind: 10 mph from Southwest

Location: Nottingham Weather Centre

Current Time: May 4, 2015 at 9:02:48 AM

Latest Report: May 4, 2015 at 8:00 AM


Visibility: 13 mi

Pressure: 29.58 "Hg

Humidity: 77%

Dew point: 45 °F

Location of RotherhamLocation

Historic Weather in Rotherham — Graph

°F

Rotherham temperature yesterday

Maximum temperature yesterday: 64 °F (at 3:00 PM)
Minimum temperature yesterday: 44 °F (at 12:00 AM)
Average temperature yesterday: 53 °F

Past Weeks' High & Low Weather Summary

 TemperatureHumidityPressure
High64 °F (May 3, 3:00 PM)100% (Apr 20, 8:00 AM)30.61 "Hg (Apr 20, 8:00 AM)
Low34 °F (Apr 20, 6:00 AM)20% (Apr 27, 1:00 PM)29.29 "Hg (May 3, 11:00 AM)
Average48 °F70%29.96 "Hg
* Reported Apr 19 7:00 AM — May 4 7:00 AM, Rotherham, Weather by CustomWeather, © 2015

Note: Actual official high and low records may vary slightly from our data, if they occured in-between our weather recording intervals... More about our weather records

Advertising

Rotherham weather history for previous 24 hours

 ConditionsComfort  
Time TempWeatherWind HumidityBarometerVisibility
7:00 AM
Mon, May 4
51 °FCool.7 mph87%29.56 "Hg31 mi
6:00 AM50 °FCool.9 mph84%29.53 "Hg9 mi
5:00 AM51 °FCool.8 mph95%29.50 "Hg11 mi
4:00 AM51 °FRain showers. Overcast.10 mph94%29.47 "Hg3 mi
3:00 AM53 °FCool.9 mph87%29.47 "Hg14 mi
2:00 AM53 °FCool.12 mph91%29.44 "Hg14 mi
1:00 AM53 °FCool.9 mph91%29.44 "Hg19 mi
12:00 AM52 °FCool.8 mph93%29.41 "Hg10 mi
11:00 PM
Sun, May 3
53 °FCool.9 mph88%29.41 "Hg31 mi
10:00 PM54 °FCool.7 mph82%29.41 "Hg17 mi
9:00 PM57 °FCool.9 mph69%29.41 "Hg31 mi
8:00 PM58 °FCool.12 mph64%29.38 "Hg12 mi
7:00 PM59 °FRefreshingly cool.13 mph59%29.35 "Hg15 mi
6:00 PM63 °FMild.15 mph55%29.35 "Hg19 mi
5:00 PM63 °FMild.10 mph70%29.32 "Hg22 mi
4:00 PM60 °FCool.13 mph77%29.32 "Hg11 mi
3:00 PM64 °FMild.8 mph71%29.32 "Hg6 mi
2:00 PM59 °FCool.10 mph81%29.32 "Hg12 mi
1:00 PM57 °FCool.10 mph89%29.32 "Hg18 mi
12:00 PM57 °FCool.6 mph100%29.29 "Hg12 mi
11:00 AM54 °FCool.8 mph100%29.29 "Hg2 mi
10:00 AM51 °FRain showers. Cloudy.8 mph100%29.32 "Hg1 mi
9:00 AM49 °FRain. Cloudy.13 mph100%29.32 "Hg1 mi
Weather by CustomWeather, © 2015

See weather overviewHow to use our weather pages